| time (UTC) | temp F | wind direction | speed knots | gust knots | rain 1hr in | rain 24hr in | rain mn in | humidity % | barometer mb |
| 20260506070306 | 41 | 230 | 6.1 | 0.0 | 0.00 | 0.00 | 0.00 | 80 | 1007.0 |
| 20260506060306 | 39 | 0 | 0.0 | 0.0 | 0.00 | 0.00 | 0.00 | 80 | 1007.0 |
| 20260506050306 | 37 | 190 | 7.0 | 0.0 | 0.00 | 0.00 | 0.00 | 93 | 1006.0 |
| 20260506043307 | 37 | 190 | 7.0 | 0.0 | 0.00 | 0.00 | 0.00 | 93 | 1006.0 |
| 20260506040307 | 37 | 190 | 7.0 | 0.0 | 0.00 | 0.00 | 0.00 | 93 | 1006.0 |
| 20260506033307 | 37 | 180 | 7.0 | 0.0 | 0.00 | 0.00 | 0.00 | 86 | 1006.0 |
| 20260506030307 | 35 | 180 | 7.0 | 0.0 | 0.00 | 0.00 | 0.00 | 93 | 1005.0 |
| 20260506023306 | 37 | 200 | 6.1 | 0.0 | 0.00 | 0.00 | 0.00 | 80 | 1005.0 |
| 20260506020306 | 37 | 250 | 7.8 | 0.0 | 0.00 | 0.00 | 0.00 | 80 | 1005.0 |
| 20260506013307 | 39 | 280 | 10.4 | 0.0 | 0.00 | 0.00 | 0.00 | 80 | 1005.0 |
| 20260506010307 | 41 | 290 | 6.1 | 0.0 | 0.00 | 0.00 | 0.00 | 75 | 1005.0 |
| 20260506003306 | 41 | 260 | 4.3 | 0.0 | 0.00 | 0.00 | 0.00 | 75 | 1004.0 |
| 20260506000307 | 39 | 280 | 6.1 | 0.0 | 0.00 | 0.00 | 0.00 | 75 | 1004.0 |
| 20260505233307 | 39 | 260 | 5.2 | 0.0 | 0.00 | 0.00 | 0.00 | 80 | 1004.0 |
| 20260505230306 | 37 | 270 | 4.3 | 0.0 | 0.00 | 0.00 | 0.00 | 86 | 1004.0 |
| 20260505223306 | 37 | 0 | 0.9 | 0.0 | 0.00 | 0.00 | 0.00 | 86 | 1004.0 |
| 20260505220306 | 39 | 350 | 5.2 | 0.0 | 0.00 | 0.00 | 0.00 | 75 | 1004.0 |
| 20260505213306 | 39 | 310 | 7.8 | 0.0 | 0.00 | 0.00 | 0.00 | 80 | 1003.0 |
| 20260505210306 | 39 | 230 | 8.7 | 0.0 | 0.00 | 0.00 | 0.00 | 86 | 1003.0 |
| 20260505203306 | 39 | 230 | 13.0 | 0.0 | 0.00 | 0.00 | 0.00 | 86 | 1003.0 |
| 20260505200306 | 39 | 230 | 10.4 | 0.0 | 0.00 | 0.00 | 0.00 | 86 | 1003.0 |
| 20260505193306 | 37 | 200 | 7.0 | 0.0 | 0.00 | 0.00 | 0.00 | 93 | 1003.0 |
| 20260505190306 | 35 | 180 | 8.7 | 0.0 | 0.00 | 0.00 | 0.00 | 10 | 1003.0 |
| 20260505183306 | 33 | 180 | 11.3 | 0.0 | 0.00 | 0.00 | 0.00 | 10 | 1003.0 |
| 20260505180307 | 35 | 210 | 17.4 | 0.0 | 0.00 | 0.00 | 0.00 | 93 | 1003.0 |
| 20260505173307 | 33 | 210 | 13.9 | 0.0 | 0.00 | 0.00 | 0.00 | 10 | 1003.0 |
| 20260505170307 | 33 | 240 | 15.6 | 0.0 | 0.00 | 0.00 | 0.00 | 10 | 1004.0 |
| 20260505163307 | 37 | 230 | 19.1 | 0.0 | 0.00 | 0.00 | 0.00 | 86 | 1003.0 |
| 20260505160307 | 39 | 250 | 13.0 | 0.0 | 0.00 | 0.00 | 0.00 | 80 | 1004.0 |
| 20260505153307 | 37 | 210 | 13.0 | 0.0 | 0.00 | 0.00 | 0.00 | 86 | 1004.0 |
| 20260505150306 | 37 | 240 | 18.2 | 0.0 | 0.00 | 0.00 | 0.00 | 80 | 1004.0 |
| 20260505140307 | 35 | 250 | 17.4 | 26.9 | 0.00 | 0.00 | 0.00 | 86 | 1004.0 |
| 20260505130307 | 42 | 230 | 17.4 | 0.0 | 0.00 | 0.00 | 0.00 | 70 | 1003.0 |
| 20260505123306 | 42 | 240 | 13.9 | 0.0 | 0.00 | 0.00 | 0.00 | 65 | 1003.0 |
| 20260505120306 | 41 | 240 | 11.3 | 0.0 | 0.00 | 0.00 | 0.00 | 75 | 1003.0 |
| 20260505113307 | 41 | 190 | 7.8 | 0.0 | 0.00 | 0.00 | 0.00 | 70 | 1003.0 |
| 20260505110307 | 35 | 230 | 5.2 | 0.0 | 0.00 | 0.00 | 0.00 | 86 | 1003.0 |
| 20260505100307 | 35 | 240 | 10.4 | 0.0 | 0.00 | 0.00 | 0.00 | 86 | 1003.0 |
| 20260505093306 | 35 | 240 | 10.4 | 0.0 | 0.00 | 0.00 | 0.00 | 86 | 1003.0 |
| 20260505090307 | 41 | 220 | 6.1 | 0.0 | 0.00 | 0.00 | 0.00 | 65 | 1002.0 |
| 20260505083306 | 39 | 260 | 4.3 | 0.0 | 0.00 | 0.00 | 0.00 | 64 | 1002.0 |
| 20260505080307 | 39 | 260 | 4.3 | 0.0 | 0.00 | 0.00 | 0.00 | 64 | 1002.0 |
| 20260505073306 | 39 | 210 | 5.2 | 0.0 | 0.00 | 0.00 | 0.00 | 75 | 1002.0 |